Flag for U.S.A. Weather past 2 weeks in Providence, Rhode Island, U.S.A.

Now
77 °F

Broken clouds.


Feels Like: 79 °F
Forecast: 63 / 81 °F
Wind: 9 mph from Southeast

Location: Green State Airport

Current Time: Jul 2, 2015 at 2:50:17 PM

Latest Report: Jul 2, 2015 at 1:51 PM


Visibility: 10 mi

Pressure: 29.88 "Hg

Humidity: 58%

Dew point: 61 °F

Location of ProvidenceLocation

Historic Weather in Providence — Graph

°F

Providence temperature yesterday

Maximum temperature yesterday: 80 °F (at 1:51 PM)
Minimum temperature yesterday: 66 °F (at 1:51 AM)
Average temperature yesterday: 72 °F

Past Weeks' High & Low Weather Summary

 TemperatureHumidityPressure
High86 °F (Jun 22, 2:51 PM)97% (Jun 21, 9:51 AM)30.18 "Hg (Jun 21, 9:51 AM)
Low52 °F (Jun 18, 4:51 AM)38% (Jun 24, 5:51 PM)29.63 "Hg (Jun 21, 4:51 PM)
Average70 °F69%29.93 "Hg
* Reported Jun 17 1:51 PM — Jul 2 1:51 PM, Providence, Weather by CustomWeather, © 2015

Note: Actual official high and low records may vary slightly from our data, if they occured in-between our weather recording intervals... More about our weather records

Advertising

Providence weather history for previous 24 hours

 ConditionsComfort  
Time TempWeatherWind HumidityBarometerVisibility
1:51 PM
Thu, Jul 2
77 °FBroken clouds.9 mph58%29.88 "Hg10 mi
12:51 PM77 °FBroken clouds.10 mph52%29.88 "Hg10 mi
11:51 AM78 °FPartly sunny.10 mph48%29.90 "Hg10 mi
10:51 AM76 °FPartly sunny.8 mph54%29.91 "Hg10 mi
9:51 AM75 °FPartly sunny.N/A55%29.91 "Hg10 mi
8:51 AM72 °FPartly sunny.5 mph64%29.90 "Hg10 mi
7:51 AM70 °FScattered clouds.6 mph68%29.89 "Hg10 mi
6:51 AM66 °FPassing clouds.6 mph75%29.88 "Hg10 mi
5:51 AM64 °FPassing clouds.7 mph81%29.86 "Hg10 mi
4:51 AM64 °FClear.No wind78%29.85 "Hg10 mi
3:51 AM65 °FClear.7 mph78%29.84 "Hg10 mi
2:51 AM66 °FClear.7 mph78%29.84 "Hg10 mi
1:51 AM68 °FClear.8 mph76%29.84 "Hg10 mi
12:51 AM70 °FClear.8 mph71%29.85 "Hg10 mi
11:51 PM
Wed, Jul 1
71 °FPassing clouds.6 mph81%29.83 "Hg10 mi
10:51 PM72 °FPassing clouds.10 mph78%29.81 "Hg10 mi
9:51 PM73 °FPassing clouds.13 mph76%29.80 "Hg10 mi
8:51 PM73 °FPassing clouds.9 mph76%29.77 "Hg10 mi
7:51 PM75 °FPassing clouds.14 mph74%29.76 "Hg10 mi
6:51 PM77 °FPassing clouds.14 mph69%29.74 "Hg10 mi
5:51 PM79 °FScattered clouds.17 mph62%29.74 "Hg10 mi
4:51 PM80 °FScattered clouds.20 mph56%29.73 "Hg10 mi
3:51 PM80 °FScattered clouds.14 mph60%29.72 "Hg10 mi
2:51 PM80 °FHaze.21 mph62%29.73 "Hg6 mi
Weather by CustomWeather, © 2015

See weather overviewHow to use our weather pages